Content
SEND FEEDBACK

Daily
Averages
Monthly
Summary
United States of America

PYGA BEACH, GUAM


Home > North America > United States > Guam
Elevation: 20 feet     Latitude: 13 17N     Longitude: 144 39E

WEATHER
 
SELECT A DAY
Number of Records: 342,554;   Date Range: 1/1/95 - 9/16/14
 
SHARE

PRINT THIS DATA

[ ← Previous Day ]
WEATHER ALMANAC - SEPTEMBER 30, 2013
[ Next Day → ]
[ °C ]   °F
Weather ElementAverageHighLow
Temperature81.1 °F85.1 °F (2:58 pm)76.3 °F (5:58 am)
Dewpoint76 °F77.5 °F (8:58 pm)71.2 °F (9:58 am)
Humidity84.7 %96 % (4:58 am)74 % (1:58 pm)
Barometer29.70 in29.83 in (11:48 pm)29.59 in (2:58 am)
Wind Speed10.2 mph16.1 mph (11:18 am)
Wind Gust25.3 mph (11:18 am)
Weather ElementAverage
Visibility10 mi
Wind DirectionSSW (209.5 °)

Weather ElementTotal
Precipitation---
Cooling Degree Days15.7 (Base 65)
Growing Degree Days30.7 (Base 50)
Averaged from 38 records on September 30, 2013
WEATHER CONDITIONS BREAKOUT
WIND DIRECTION BREAKOUT
WEATHER BY HOUR - SEPTEMBER 30, 2013
[ °C ]   °F
Local TimeTemperatureDewpointHumidityBarometerVisibilityWind DirectionWind SpeedGust SpeedPrecipitationEventsConditions
1:58 AM76.6 °F75.2 °F95 %29.60 in10.0 miSSW (210°)6.9 mphClear
2:58 AM76.6 °F74.7 °F94 %29.59 in10.0 miSW (220°)8.1 mphMostly Cloudy
3:58 AM77.0 °F75.6 °F95 %29.59 in10.0 miSW (220°)6.9 mphMostly Cloudy
4:58 AM77.0 °F75.7 °F96 %29.60 in10.0 miSSW (210°)6.9 mphMostly Cloudy
5:58 AM76.3 °F72.5 °F88 %29.63 in10.0 miWSW (240°)12.7 mphPartly Cloudy
6:58 AM76.5 °F74.1 °F92 %29.66 in10.0 miWSW (240°)12.7 mphMostly Cloudy
7:58 AM77.2 °F74.5 °F91 %29.67 in10.0 miWSW (250°)11.5 mphPartly Cloudy
8:58 AM77.9 °F74.3 °F89 %29.67 in10.0 miSW (230°)11.5 mphPartly Cloudy
9:58 AM76.6 °F71.2 °F83 %29.66 in10.0 miSouth (190°)11.5 mphPartly Cloudy
10:58 AM82.8 °F75.4 °F78 %29.66 in10.0 miSSW (200°)15.0 mph20.7 mphScattered Clouds
11:13 AM82.4 °F75.2 °F79 %29.78 in10.0 miSSW (210°)13.8 mph21.9 mphMostly Cloudy
11:18 AM82.4 °F75.2 °F79 %29.78 in10.0 miSSW (200°)16.1 mph25.3 mphMostly Cloudy
11:58 AM82.6 °F75.7 °F80 %29.64 in10.0 miSSW (200°)10.4 mphMostly Cloudy
12:58 PM84.6 °F76.8 °F77 %29.64 in10.0 miSW (220°)16.1 mphMostly Cloudy
1:58 PM84.9 °F75.9 °F74 %29.63 in10.0 miSW (230°)12.7 mphMostly Cloudy
2:39 PM82.4 °F75.2 °F79 %29.74 in10.0 miSSW (210°)12.7 mph19.6 mphRainLight Rain
2:49 PM84.2 °F75.2 °F74 %29.74 in10.0 miSSW (210°)11.5 mph19.6 mphScattered Clouds
2:58 PM85.1 °F76.1 °F74 %29.62 in10.0 miSSW (200°)11.5 mph18.4 mph0.00 inScattered Clouds
3:38 PM84.2 °F77.0 °F79 %29.74 in10.0 miSSW (200°)9.2 mphMostly Cloudy
3:43 PM84.2 °F77.0 °F79 %29.74 in10.0 miSSW (210°)9.2 mphScattered Clouds
3:58 PM83.8 °F76.3 °F78 %29.62 in10.0 miSSW (200°)10.4 mphMostly Cloudy
4:03 PM84.2 °F77.0 °F79 %29.74 in10.0 miSouth (190°)12.7 mphScattered Clouds
4:13 PM84.2 °F77.0 °F79 %29.74 in10.0 miSouth (190°)11.5 mphMostly Cloudy
4:23 PM84.2 °F77.0 °F79 %29.74 in10.0 miSSW (200°)11.5 mphMostly Cloudy
4:28 PM84.2 °F77.0 °F79 %29.74 in10.0 miSSW (200°)9.2 mphMostly Cloudy
4:38 PM84.2 °F77.0 °F79 %29.74 in10.0 miSSW (200°)9.2 mphMostly Cloudy
4:43 PM84.2 °F77.0 °F79 %29.75 in10.0 miSouth (190°)10.4 mphScattered Clouds
4:58 PM82.9 °F76.6 °F81 %29.63 in10.0 miSSW (200°)9.2 mphPartly Cloudy
5:58 PM81.7 °F76.8 °F85 %29.66 in10.0 miSSW (200°)10.4 mphMostly Cloudy
6:08 PM80.6 °F77.0 °F89 %29.78 in10.0 miSW (220°)10.4 mphScattered Clouds
6:58 PM80.1 °F77.0 °F90 %29.68 in10.0 miSSW (210°)6.9 mphPartly Cloudy
7:58 PM80.1 °F77.0 °F90 %29.70 in10.0 miSSW (200°)6.9 mphMostly Cloudy
8:58 PM79.9 °F77.5 °F93 %29.71 in10.0 miSSW (210°)6.9 mphClear
9:58 PM79.5 °F77.4 °F93 %29.73 in10.0 miSW (230°)9.2 mphPartly Cloudy
10:58 PM79.3 °F77.5 °F94 %29.71 in10.0 miSSW (210°)8.1 mphClear
11:48 PM80.6 °F77.0 °F89 %29.83 in10.0 miSSW (200°)5.8 mphMostly Cloudy
11:53 PM78.8 °F77.0 °F94 %29.83 in10.0 miSSW (200°)6.9 mphMostly Cloudy
11:58 PM79.5 °F77.5 °F94 %29.71 in10.0 miSSW (210°)5.8 mphScattered Clouds
Hourly data recorded from PGUA, located miles away from Pyga Beach, Guam







STORIES FROM OUR PARTNERS